Hyannis, MA

6:59 AM EDT on September 24, 2017 (GMT -0400)
Barnstable Municipal-Boardman-Polando Field

Weather History for KHYA - May, 2014

Change the Weather History Date:

Thursday, May 8, 2014

  Actual Average Record
Temperature  
Mean Temperature 56 °F -  
Max Temperature 64 °F 61 °F 84 °F (1957)
Min Temperature 48 °F 42 °F 28 °F (1968)
Degree Days  
Heating Degree Days 9    
Growing Degree Days 6 (Base 50)    
Moisture  
Dew Point 47 °F    
Average Humidity 74    
Maximum Humidity 96    
Minimum Humidity 47    
Precipitation  
Precipitation 0.00 in - - ()
Sea Level Pressure  
Sea Level Pressure 30.16 in    
Wind  
Wind Speed 8 mph (SW)    
Max Wind Speed 15 mph    
Max Gust Speed 23 mph    
Visibility 10 miles    
Events      
Averages and records for this station are not official NWS values.
T = Trace of Precipitation, MM = Missing Value Source: NWS Daily Summary

Daily Weather History Graph

Daily Weather History Graph

Search for Another Location

Airport or City:

Trip Planner

Search our weather history database for the weather conditions in past years. The results will help you decide how hot, cold, wet, or windy it might be!

Date:

Astronomy

May. 08, 2014 Rise Set
Actual Time 5:29 AM EDT 7:46 PM EDT
Civil Twilight 4:58 AM EDT 8:17 PM EDT
Nautical Twilight 4:20 AM EDT 8:56 PM EDT
Astronomical Twilight 3:37 AM EDT 9:38 PM EDT
Moon 1:39 PM EDT (5/8) 2:03 AM EDT (5/8)
Length of Visible Light 15h 19m
Length of Day
14h 17m
Waxing Gibbous, 64% of the Moon is Illuminated
May 8
Waxing Gibbous
May 14
Full
May 21
Last Quarter
May 28
New
Jun 5
First Quarter

Hourly Weather History & Observations

Time (EDT) Temp. Dew Point Humidity Pressure Visibility Wind Dir Wind Speed Gust Speed Precip Events Conditions
12:56 AM 50.0 °F 41.0 °F 71% 30.18 in 10.0 mi SSW 6.9 mph - N/A   Clear
1:56 AM 50.0 °F 41.0 °F 71% 30.17 in 10.0 mi SW 9.2 mph - N/A   Clear
2:56 AM 48.9 °F 41.0 °F 74% 30.17 in 10.0 mi SW 8.1 mph - N/A   Clear
3:56 AM 48.9 °F 42.1 °F 77% 30.17 in 10.0 mi SW 8.1 mph - N/A   Clear
4:56 AM 48.0 °F 42.1 °F 80% 30.17 in 10.0 mi WSW 6.9 mph - N/A   Clear
5:56 AM 48.0 °F 42.1 °F 80% 30.18 in 10.0 mi WSW 6.9 mph - N/A   Clear
6:56 AM 51.1 °F 43.0 °F 74% 30.19 in 10.0 mi WSW 6.9 mph - N/A   Clear
7:56 AM 55.0 °F 43.0 °F 64% 30.19 in 10.0 mi SW 5.8 mph - N/A   Clear
8:56 AM 59.0 °F 45.0 °F 60% 30.18 in 10.0 mi Variable 5.8 mph - N/A   Clear
9:56 AM 62.1 °F 46.0 °F 56% 30.18 in 10.0 mi SSW 9.2 mph - N/A   Clear
10:56 AM 64.9 °F 44.1 °F 47% 30.17 in 10.0 mi SW 11.5 mph - N/A   Clear
11:56 AM 63.0 °F 46.0 °F 54% 30.16 in 10.0 mi SSW 13.8 mph - N/A   Clear
12:56 PM 63.0 °F 46.0 °F 54% 30.14 in 10.0 mi SSW 15.0 mph 23.0 mph N/A   Clear
1:56 PM 61.0 °F 48.0 °F 62% 30.14 in 10.0 mi SW 13.8 mph - N/A   Scattered Clouds
2:56 PM 60.1 °F 52.0 °F 75% 30.12 in 9.0 mi SW 12.7 mph - N/A   Scattered Clouds
3:56 PM 61.0 °F 53.1 °F 75% 30.11 in 10.0 mi SW 11.5 mph - N/A   Partly Cloudy
4:56 PM 61.0 °F 53.1 °F 75% 30.10 in 10.0 mi SW 12.7 mph - N/A   Partly Cloudy
5:56 PM 60.1 °F 53.1 °F 78% 30.11 in 10.0 mi SSW 8.1 mph - N/A   Overcast
6:56 PM 57.9 °F 53.1 °F 84% 30.12 in 10.0 mi South 5.8 mph - N/A   Overcast
7:56 PM 57.0 °F 52.0 °F 83% 30.14 in 10.0 mi South 4.6 mph - N/A   Clear
8:56 PM 55.0 °F 52.0 °F 89% 30.14 in 10.0 mi South 5.8 mph - N/A   Clear
9:56 PM 54.0 °F 52.0 °F 93% 30.17 in 10.0 mi SW 8.1 mph - N/A   Clear
10:56 PM 53.1 °F 52.0 °F 96% 30.16 in 10.0 mi WSW 3.5 mph - N/A   Clear
11:56 PM 51.1 °F 48.9 °F 92% 30.18 in 7.0 mi Calm Calm - N/A   Clear